Home > Weather > Astrakhan > Past weeks

Flag for Russia Weather for the Past 2 Weeks in Astrakhan, Russia

Now
28 °F

Clear.


Feels Like: 20 °F
Forecast: 26 / 40 °F
Wind: 8 mph from Southeast

Location: Astrakhan

Current Time: Feb 9, 2016 at 7:44:21 PM

Latest Report: Feb 9, 2016 at 7:00 PM


Visibility: 10 mi

Pressure: 30.60 "Hg

Humidity: 74%

Dew point: 21 °F

Location of AstrakhanLocation

Historic Weather in Astrakhan — Graph

°F

Astrakhan Temperature Yesterday

Maximum temperature yesterday: 37 °F (at 12:30 PM)
Minimum temperature yesterday: 25 °F (at 10:00 PM)
Average temperature yesterday: 31 °F

High & Low Weather Summary for the Past Weeks

 TemperatureHumidityPressure
High54 °F (Feb 4, 12:30 PM)100% (Jan 29, 4:00 AM)30.63 "Hg (Jan 29, 4:00 AM)
Low-2 °F (Jan 27, 5:30 AM)41% (Feb 7, 4:00 PM)29.80 "Hg (Feb 6, 4:00 AM)
Average31 °F81%30.18 "Hg
* Reported Jan 25 6:00 PM — Feb 9 6:00 PM, Astrakhan, Weather by CustomWeather, © 2016

Note: Actual official high and low records may vary slightly from our data, if they occured in-between our weather recording intervals... More about our weather records

Advertising

Astrakhan Weather History for the Previous 24 Hours

 ConditionsComfort  
Time TempWeatherWind HumidityBarometerVisibility
6:00 PM
Tue, Feb 9
30 °FSunny.6 mph64%30.60 "Hg10 mi
5:30 PM32 °FSunny.6 mph60%30.57 "Hg10 mi
5:00 PM34 °FSunny.8 mph56%30.57 "Hg10 mi
4:30 PM37 °FSunny.8 mph48%30.57 "Hg10 mi
3:30 PM39 °FChilly.8 mph48%30.57 "HgN/A
3:00 PM39 °FScattered clouds.6 mph48%30.57 "HgN/A
2:30 PM41 °FScattered clouds.6 mph45%30.57 "HgN/A
1:30 PM39 °FPassing clouds.6 mph52%30.57 "HgN/A
12:30 PM39 °FScattered clouds.6 mph52%30.60 "HgN/A
11:30 AM37 °FScattered clouds.3 mph60%30.63 "HgN/A
11:00 AM36 °FPassing clouds.3 mph65%30.63 "HgN/A
10:30 AM36 °FPassing clouds.6 mph65%30.63 "HgN/A
10:00 AM34 °FPassing clouds.3 mph70%30.63 "HgN/A
9:30 AM32 °FSunny.6 mph75%30.63 "Hg10 mi
9:00 AM30 °FSunny.6 mph80%30.63 "Hg10 mi
8:30 AM28 °FClear.1 mph86%30.63 "Hg5 mi
8:00 AM23 °FClear.1 mph93%30.60 "Hg5 mi
7:30 AM21 °FClear.1 mph93%30.60 "Hg4 mi
6:30 AM21 °FClear.No wind93%30.57 "Hg10 mi
6:00 AM19 °FClear.No wind93%30.57 "Hg10 mi
5:30 AM21 °FClear.No wind86%30.57 "Hg10 mi
5:00 AM21 °FClear.No wind93%30.60 "Hg10 mi
4:30 AM21 °FClear.No wind86%30.60 "Hg10 mi
4:00 AM21 °FClear.No wind93%30.60 "Hg10 mi
3:30 AM23 °FClear.No wind86%30.60 "Hg10 mi
3:00 AM23 °FClear.1 mph86%30.60 "Hg10 mi
2:30 AM25 °FClear.No wind86%30.60 "Hg10 mi
2:00 AM23 °FClear.No wind86%30.60 "Hg10 mi
1:00 AM23 °FClear.No wind86%30.60 "Hg10 mi
12:30 AM23 °FClear.No wind93%30.60 "Hg10 mi
12:00 AM23 °FClear.No wind86%30.60 "Hg10 mi
11:30 PM
Mon, Feb 8
25 °FClear.No wind80%30.60 "Hg10 mi
11:00 PM25 °FClear.No wind86%30.60 "Hg10 mi
10:30 PM25 °FClear.1 mph80%30.60 "Hg10 mi
10:00 PM25 °FClear.No wind80%30.60 "Hg10 mi
9:30 PM27 °FClear.No wind80%30.60 "Hg10 mi
9:00 PM27 °FClear.No wind80%30.60 "Hg10 mi
8:30 PM28 °FClear.1 mph74%30.57 "Hg10 mi
8:00 PM28 °FClear.No wind74%30.57 "Hg10 mi
7:30 PM30 °FClear.No wind69%30.57 "Hg10 mi
7:00 PM30 °FClear.No wind69%30.57 "Hg10 mi
Weather by CustomWeather, © 2016

See weather overviewHow to use our weather pages